Location: 22
(39.7117°N, 89.5929°W)
Time: 16:52:42
(UTC-05:00)

Tiros 1 despin weight - Pass Details

Date: 08 August 2024
Orbit: 573 x 617 km, 48.2° (Epoch: 17 September)

Event Time Altitude Azimuth Distance (km) Brightness Sun altitude
Rises 00:04:01 0° 301° (WNW) 2,777 ? -32.6°
Reaches altitude 10° 00:06:19 10° 305° (NW) 1,877 ? -32.7°
Enters shadow 00:07:26 18° 309° (NW) 1,452 ? -32.8°
